Regional Weather Roundup
Issued by NWS

Home | Current Version | Previous Version | Text Only | Print | Product List | Glossary Off
Versions: 1 2 3 4 5 6 7 8 9 10 11 12 13 14 15 16 17 18 19 20 21 22 23 24 25 26 27

000
ASUS45 KBOU 102110
RWRCO

WEATHER ROUNDUP FOR COLORADO
NATIONAL WEATHER SERVICE DENVER/BOULDER CO
200 PM MST SUN DEC 10 2017

NOTE: "FAIR" INDICATES FEW OR NO CLOUDS BELOW 12000 FEET WITH NO
SIGNIFICANT WEATHER AND/OR OBSTRUCTIONS TO VISIBILITY.

COZ001>005-013-030-031-102200-
...NORTHWEST COLORADO...

CITY           SKY/WX    TMP DP  RH WIND       PRES   REMARKS
CRAIG          FAIR      34  17  50 SW6       30.53F WCI  29
HAYDEN         FAIR      37  17  44 SE3       30.54F
MEEKER         FAIR      49  -7   9 VRB3      30.50F
RABBIT EARS PA FAIR      28   9  43 W6        30.55F WCI  22
STEAMBOAT SPGS FAIR      37  16  42 CALM      30.53F
WALDEN         FAIR      36  12  38 S7        30.53S
$$

COZ006>008-011-102200-
...WEST CENTRAL VALLEYS...

CITY           SKY/WX    TMP DP  RH WIND       PRES   REMARKS
GRAND JUNCTION FAIR      46   5  18 CALM      30.52F
MONTROSE       FAIR      44   1  16 CALM      30.53F
EAGLE          FAIR      34   8  33 W3        30.59F
RIFLE          FAIR      45   2  17 CALM      30.52F
DELTA          FAIR      47  -1  14 CALM      30.52F
NUCLA          FAIR      45  -6  12 CALM      30.54F
$$

COZ017>023-064>068-102200-
...SOUTHWEST COLORADO...

CITY           SKY/WX    TMP DP  RH WIND       PRES   REMARKS
DURANGO        FAIR      50   1  13 W6        30.46F
CORTEZ         FAIR      47   3  16 SW8       30.48F
PAGOSA SPRINGS FAIR      51 -10   7 SW3       30.48F
TELLURIDE      FAIR      49 -17   6 W12       30.53F
WOLF CREEK PAS FAIR      36 -11  13 SW6       30.64F
$$

COZ009-010-012-014-032>034-037-058>063-102200-
...CENTRAL COLORADO...

CITY           SKY/WX    TMP DP  RH WIND       PRES   REMARKS
ASPEN          FAIR      45  -5  12 NW6       30.51F
BUENA VISTA    FAIR      51 -14   6 SE5       30.44F
COPPER MTN     NOT AVBL
BERTHOUD PASS  FAIR      21   9  58 NW26      30.54F WCI   4
COTTONWOOD PAS FAIR      52 -27   3 CALM      30.51S
GUNNISON       FAIR      37  -1  20 CALM      30.53F
KREMMLING      FAIR      28  16  59 CALM      30.60F
LEADVILLE      FAIR      41 -15   9 N5        30.52F
MONARCH PASS   FAIR      32  -9  16 SW14G23   30.68R WCI  22
SALIDA         FAIR      54  -8   7 CALM      30.50F
SUNLIGHT       FAIR      32  -9  16 W3        30.62S
WILKERSON PASS FAIR      37 -15  10 W5        30.56S
$$

COZ069>075-102200-
...SAN LUIS VALLEY/SANGRE DE CRISTO MOUNTAINS...

CITY           SKY/WX    TMP DP  RH WIND       PRES   REMARKS
ALAMOSA        FAIR      46  -6  11 CALM      30.47F
DEL NORTE      FAIR      44  -3  14 E3        30.49F
LA VETA PASS   FAIR      39  -2  17 SW13        N/A
SAGUACHE       FAIR      45  -6  12 S3        30.48F
$$

COZ035-036-038>040-102200-
...NORTHERN COLORADO FRONT RANGE...

CITY           SKY/WX    TMP DP  RH WIND       PRES   REMARKS
DENVER INTL AP FAIR      60 -11   5 CALM      30.34F
DMNS CITY PARK NOT AVBL
AURORA         MOSUNNY   60 -11   5 CALM      30.35F
FRONT RANGE AP SUNNY     63  -6   6 CALM      30.35F
ERIE MUNI ARPT FAIR      58  -3   8 CALM      30.39F
BOULDER MUN AP FAIR      59   5  11 CALM      30.34F
CENTENNIAL     FAIR      60  -4   7 VRB3      30.35F
BROOMFIELD     MOSUNNY   59  -2   8 CALM      30.36F
FORT COLLINS   FAIR      56   3  11 SW5       30.34F
LONGMONT       FAIR      60   0   9 S3        30.36F
$$

COZ041-046-047-076>085-087-088-102200-
...PIKES PEAK/PALMER DIVIDE AND SOUTHERN FOOTHILLS...

CITY           SKY/WX    TMP DP  RH WIND       PRES   REMARKS
COLO. SPRINGS  FAIR      55  -6   8 S6        30.39F
A. F. ACADEMY  FAIR      55 -15   5 S3        30.38F
SCHRIEVER AFB  FAIR      54  -6   8 SW9       30.39F
CHEYENNE MTN   FAIR      51  -6   9 CALM      30.35F
ELLICOTT         N/A    N/A N/A N/A SW9       30.37F
FALCON         FAIR      54 -10   6 SW5       30.41F
FORT CARSON    FAIR      55 -11   6 CALM      30.37F
LIMON          FAIR      59 -10   6 VRB3      30.35F
MONUMENT HILL  FAIR      54  -9   7 NW5       30.40F
CANON CITY     FAIR      61  -2   8 SE5       30.35F
WALSENBURG     FAIR      63   1   8 E3        30.36F
TRINIDAD       FAIR      59  -6   7 SE5       30.37F
$$

COZ042>045-048>051-090-091-102200-
...NORTHEAST COLORADO...

CITY           SKY/WX    TMP DP  RH WIND       PRES   REMARKS
GREELEY ARPT   FAIR      56   4  12 SW6       30.33F
AKRON          FAIR      59  -1   9 NW12      30.32F
BURLINGTON     FAIR      61   1   9 NW14      30.33F
WRAY           FAIR      64   1   8 NW9       30.29F
YUMA           FAIR      59   1  10 NW12      30.31F
STERLING       FAIR      63   3   9 NW14      30.28F
HOLYOKE        FAIR      64   3   9 W12G17    30.28F
FORT MORGAN    FAIR      60  -3   7 SW8       30.32F
$$

COZ086-089-092>099-102200-
...SOUTHEAST COLORADO...

CITY           SKY/WX    TMP DP  RH WIND       PRES   REMARKS
PUEBLO         FAIR      60  -4   7 SE3       30.35F
LA JUNTA       FAIR      60   0   9 CALM      30.35F
LAMAR          FAIR      64  -3   7 W7        30.33F
SPRINGFIELD      N/A     63   3   9 N6        30.34F
$$




USA.gov is the U.S. government's official web portal to all federal, state and local government web resources and services.